Location: Casteau
(50.5142°N, 4.0161°E)
Time: 17:34:42
(UTC+00:00)

Courier 1B - All Passes

Search period start: 27 July 2021 00:00
Search period end: 06 August 2021 00:00
Orbit: 962 x 1209 km, 28.3° (Epoch: 26 July)

Date Brightness Start Highest point End Pass type
(mag) Time Alt. Az. Time Alt. Az. Time Alt. Az.
27 Jul - 21:23:01 10° S 21:24:10 10° S 21:25:18 10° SSE visible
27 Jul - 23:15:41 10° SSW 23:16:40 10° S 23:17:40 10° S visible
28 Jul - 22:21:12 10° SSW 22:23:15 11° S 22:25:16 10° SSE visible
29 Jul - 21:27:22 10° SSW 21:29:47 12° S 21:32:11 10° SSE visible
30 Jul - 20:33:53 10° SSW 20:36:19 12° S 20:38:43 10° SSE visible
30 Jul - 22:27:49 10° SSW 22:28:52 10° S 22:29:54 10° S visible
31 Jul - 19:40:48 10° S 19:42:50 11° S 19:44:49 10° SSE daylight
31 Jul - 21:33:04 10° SSW 21:35:25 12° S 21:37:43 10° SSE visible
01 Aug - 18:48:55 10° S 18:49:20 10° SSE 18:49:44 10° SSE daylight
01 Aug - 20:39:04 10° SSW 20:41:56 12° S 20:44:46 10° SSE visible
02 Aug - 19:45:25 10° SSW 19:48:26 13° S 19:51:24 10° SSE daylight
03 Aug - 18:52:05 10° SSW 18:54:55 12° S 18:57:44 10° SSE daylight
03 Aug - 20:45:14 10° SSW 20:47:32 11° S 20:49:49 10° S visible
04 Aug - 17:59:12 10° S 18:01:24 11° S 18:03:36 10° SSE daylight
04 Aug - 19:51:04 10° SSW 19:54:02 12° S 19:56:58 10° SSE visible
05 Aug - 18:57:18 10° SSW 19:00:31 13° S 19:03:43 10° SSE daylight
